| time (UTC) | temp C | wind direction | speed KPH | gust KPH | rain 1hr cm | rain 24hr cm | rain mn cm | humidity % | barometer mb |
| 20260906184611 | 41 | 43 | 4.8 | 12.9 | 0.00 | 0.00 | 0.00 | 31 | 1010.8 |
| 20260906183113 | 41 | 87 | 3.2 | 8.0 | 0.00 | 0.00 | 0.00 | 31 | 1010.9 |
| 20260906181604 | 41 | 286 | 1.6 | 6.4 | 0.00 | 0.00 | 0.00 | 31 | 1011.2 |
| 20260906180014 | 41 | 63 | 3.2 | 11.3 | 0.00 | 0.00 | 0.00 | 31 | 1011.7 |
| 20260906174506 | 41 | 172 | 1.6 | 9.7 | 0.00 | 0.00 | 0.00 | 33 | 1012.0 |
| 20260906173003 | 40 | 174 | 4.8 | 8.0 | 0.00 | 0.00 | 0.00 | 35 | 1012.2 |
| 20260906171505 | 38 | 340 | 1.6 | 9.7 | 0.00 | 0.00 | 0.00 | 38 | 1012.5 |
| 20260906170116 | 38 | 212 | 3.2 | 9.7 | 0.00 | 0.00 | 0.00 | 38 | 1012.6 |
| 20260906164600 | 37 | 28 | 3.2 | 12.9 | 0.00 | 0.00 | 0.00 | 39 | 1012.8 |
| 20260906163100 | 37 | 152 | 1.6 | 8.0 | 0.00 | 0.00 | 0.00 | 40 | 1012.9 |
| 20260906161621 | 36 | 285 | 4.8 | 8.0 | 0.00 | 0.00 | 0.00 | 43 | 1012.9 |
| 20260906160005 | 35 | 285 | 1.6 | 6.4 | 0.00 | 0.00 | 0.00 | 45 | 1013.1 |
| 20260906154504 | 35 | 327 | 3.2 | 11.3 | 0.00 | 0.00 | 0.00 | 48 | 1013.1 |
| 20260906153006 | 34 | 189 | 1.6 | 6.4 | 0.00 | 0.00 | 0.00 | 51 | 1013.3 |
| 20260906151504 | 33 | 166 | 1.6 | 12.9 | 0.00 | 0.00 | 0.00 | 53 | 1013.2 |
| 20260906150002 | 32 | 186 | 3.2 | 12.9 | 0.00 | 0.00 | 0.00 | 55 | 1013.2 |
| 20260906144602 | 31 | 291 | 1.6 | 8.0 | 0.00 | 0.00 | 0.00 | 57 | 1013.2 |
| 20260906143059 | 30 | 147 | 1.6 | 8.0 | 0.00 | 0.00 | 0.00 | 61 | 1013.1 |
| 20260906141620 | 29 | 299 | 1.6 | 8.0 | 0.00 | 0.00 | 0.00 | 64 | 1013.3 |
| 20260906140009 | 28 | 130 | 3.2 | 12.9 | 0.00 | 0.00 | 0.00 | 67 | 1013.3 |
| 20260906134505 | 27 | 190 | 3.2 | 12.9 | 0.00 | 0.00 | 0.00 | 70 | 1013.2 |
| 20260906133002 | 26 | 198 | 1.6 | 6.4 | 0.00 | 0.00 | 0.00 | 73 | 1012.8 |
| 20260906131502 | 26 | 212 | 1.6 | 4.8 | 0.00 | 0.00 | 0.00 | 76 | 1013.0 |
| 20260906130007 | 25 | 170 | 1.6 | 4.8 | 0.00 | 0.00 | 0.00 | 77 | 1012.6 |
| 20260906124501 | 25 | 247 | 0.0 | 4.8 | 0.00 | 0.00 | 0.00 | 78 | 1012.5 |
| 20260906123108 | 25 | 223 | 0.0 | 3.2 | 0.00 | 0.00 | 0.00 | 78 | 1012.2 |
| 20260906121614 | 25 | 122 | 0.0 | 1.6 | 0.00 | 0.00 | 0.00 | 77 | 1012.2 |
| 20260906120106 | 25 | 122 | 0.0 | 4.8 | 0.00 | 0.00 | 0.00 | 77 | 1012.0 |
| 20260906114559 | 25 | 191 | 0.0 | 4.8 | 0.00 | 0.00 | 0.00 | 77 | 1012.1 |
| 20260906113057 | 25 | 124 | 0.0 | 3.2 | 0.00 | 0.00 | 0.00 | 77 | 1012.1 |
| 20260906111503 | 25 | 123 | 0.0 | 0.0 | 0.00 | 0.00 | 0.00 | 77 | 1011.9 |
| 20260906110003 | 25 | 125 | 0.0 | 1.6 | 0.00 | 0.00 | 0.00 | 76 | 1012.1 |
| 20260906104503 | 25 | 268 | 0.0 | 1.6 | 0.00 | 0.00 | 0.00 | 77 | 1011.7 |
| 20260906103103 | 25 | 268 | 0.0 | 1.6 | 0.00 | 0.00 | 0.00 | 77 | 1011.8 |
| 20260906101605 | 25 | 264 | 0.0 | 3.2 | 0.00 | 0.00 | 0.00 | 78 | 1011.8 |
| 20260906100005 | 25 | 337 | 0.0 | 0.0 | 0.00 | 0.00 | 0.00 | 78 | 1011.6 |
| 20260906094505 | 25 | 337 | 0.0 | 1.6 | 0.00 | 0.00 | 0.00 | 77 | 1011.3 |
| 20260906093003 | 25 | 337 | 0.0 | 1.6 | 0.00 | 0.00 | 0.00 | 76 | 1011.5 |
| 20260906091603 | 25 | 44 | 0.0 | 3.2 | 0.00 | 0.00 | 0.00 | 76 | 1011.2 |
| 20260906090001 | 25 | 44 | 0.0 | 0.0 | 0.00 | 0.00 | 0.00 | 75 | 1011.0 |
| 20260906084504 | 25 | 44 | 0.0 | 0.0 | 0.00 | 0.00 | 0.00 | 74 | 1011.0 |
| 20260906083003 | 25 | 44 | 0.0 | 1.6 | 0.00 | 0.00 | 0.00 | 74 | 1011.0 |
| 20260906081602 | 26 | 47 | 0.0 | 1.6 | 0.00 | 0.00 | 0.00 | 73 | 1010.8 |
| 20260906080100 | 26 | 47 | 0.0 | 3.2 | 0.00 | 0.00 | 0.00 | 72 | 1011.0 |
| 20260906074559 | 26 | 47 | 0.0 | 0.0 | 0.00 | 0.00 | 0.00 | 71 | 1011.0 |
| 20260906073058 | 26 | 47 | 0.0 | 1.6 | 0.00 | 0.00 | 0.00 | 70 | 1011.4 |
| 20260906071505 | 27 | 48 | 0.0 | 3.2 | 0.00 | 0.00 | 0.00 | 69 | 1011.5 |
| 20260906070004 | 27 | 94 | 0.0 | 0.0 | 0.00 | 0.00 | 0.00 | 68 | 1011.1 |
| 20260906064604 | 27 | 129 | 0.0 | 0.0 | 0.00 | 0.00 | 0.00 | 68 | 1011.0 |
| 20260906063102 | 27 | 129 | 0.0 | 3.2 | 0.00 | 0.00 | 0.00 | 67 | 1011.1 |
| 20260906061602 | 27 | 147 | 0.0 | 3.2 | 0.00 | 0.00 | 0.00 | 66 | 1010.9 |
| 20260906060135 | 27 | 104 | 1.6 | 3.2 | 0.00 | 0.00 | 0.00 | 65 | 1011.2 |
| 20260906054612 | 28 | 15 | 0.0 | 0.0 | 0.00 | 0.00 | 0.00 | 65 | 1011.0 |
| 20260906053057 | 28 | 14 | 0.0 | 3.2 | 0.00 | 0.00 | 0.00 | 64 | 1011.1 |
| 20260906051506 | 28 | 359 | 0.0 | 3.2 | 0.00 | 0.00 | 0.00 | 64 | 1011.0 |
| 20260906050001 | 28 | 13 | 1.6 | 3.2 | 0.00 | 0.00 | 0.00 | 64 | 1011.2 |
| 20260906044601 | 28 | 123 | 1.6 | 4.8 | 0.00 | 0.00 | 0.00 | 63 | 1011.4 |
| 20260906043058 | 28 | 158 | 0.0 | 1.6 | 0.00 | 0.00 | 0.00 | 64 | 1011.2 |
| 20260906041559 | 29 | 163 | 0.0 | 1.6 | 0.00 | 0.00 | 0.00 | 64 | 1011.1 |
| 20260906040003 | 29 | 163 | 0.0 | 3.2 | 0.00 | 0.00 | 0.00 | 62 | 1011.0 |
| 20260906034502 | 30 | 163 | 0.0 | 1.6 | 0.00 | 0.00 | 0.00 | 61 | 1010.9 |
| 20260906033106 | 30 | 162 | 0.0 | 3.2 | 0.00 | 0.00 | 0.00 | 59 | 1010.9 |
| 20260906031603 | 30 | 133 | 0.0 | 0.0 | 0.00 | 0.00 | 0.00 | 57 | 1010.7 |
| 20260906030059 | 31 | 133 | 0.0 | 0.0 | 0.00 | 0.00 | 0.00 | 55 | 1010.7 |
| 20260906024606 | 31 | 133 | 0.0 | 0.0 | 0.00 | 0.00 | 0.00 | 54 | 1010.5 |
| 20260906023058 | 32 | 133 | 0.0 | 0.0 | 0.00 | 0.00 | 0.00 | 52 | 1010.5 |
| 20260906021601 | 32 | 133 | 0.0 | 0.0 | 0.00 | 0.00 | 0.00 | 51 | 1010.2 |
| 20260906020057 | 32 | 134 | 0.0 | 0.0 | 0.00 | 0.00 | 0.00 | 49 | 1010.1 |
| 20260906014555 | 32 | 133 | 0.0 | 0.0 | 0.00 | 0.00 | 0.00 | 49 | 1010.0 |
| 20260906013053 | 33 | 133 | 0.0 | 0.0 | 0.00 | 0.00 | 0.00 | 47 | 1009.8 |
| 20260906011553 | 35 | 133 | 0.0 | 0.0 | 0.00 | 0.00 | 0.00 | 45 | 1009.8 |
| 20260906010130 | 36 | 133 | 0.0 | 0.0 | 0.00 | 0.00 | 0.00 | 42 | 1009.4 |
| 20260906004608 | 37 | 133 | 0.0 | 0.0 | 0.00 | 0.00 | 0.00 | 40 | 1009.4 |
| 20260906003100 | 37 | 133 | 0.0 | 0.0 | 0.00 | 0.00 | 0.00 | 37 | 1009.5 |
| 20260906001604 | 38 | 133 | 0.0 | 1.6 | 0.00 | 0.00 | 0.00 | 35 | 1009.5 |
| 20260906000056 | 40 | 158 | 0.0 | 4.8 | 0.00 | 0.00 | 0.00 | 33 | 1009.4 |
| 20260905234557 | 40 | 75 | 0.0 | 3.2 | 0.00 | 0.00 | 0.00 | 32 | 1009.6 |
| 20260905233056 | 40 | 39 | 0.0 | 4.8 | 0.00 | 0.00 | 0.00 | 32 | 1009.5 |
| 20260905231511 | 41 | 52 | 1.6 | 9.7 | 0.00 | 0.00 | 0.00 | 31 | 1009.5 |
| 20260905230004 | 41 | 168 | 1.6 | 6.4 | 0.00 | 0.00 | 0.00 | 30 | 1009.5 |
| 20260905224502 | 41 | 100 | 1.6 | 4.8 | 0.00 | 0.00 | 0.00 | 31 | 1009.4 |
| 20260905223102 | 41 | 193 | 3.2 | 12.9 | 0.00 | 0.00 | 0.00 | 30 | 1009.5 |
| 20260905221602 | 41 | 64 | 1.6 | 6.4 | 0.00 | 0.00 | 0.00 | 29 | 1009.3 |
| 20260905220100 | 41 | 42 | 3.2 | 6.4 | 0.00 | 0.00 | 0.00 | 30 | 1009.6 |
| 20260905214511 | 41 | 39 | 1.6 | 11.3 | 0.00 | 0.00 | 0.00 | 31 | 1009.7 |
| 20260905213005 | 41 | 181 | 1.6 | 8.0 | 0.00 | 0.00 | 0.00 | 31 | 1009.6 |
| 20260905211504 | 41 | 232 | 1.6 | 9.7 | 0.00 | 0.00 | 0.00 | 31 | 1009.8 |
| 20260905210003 | 41 | 222 | 0.0 | 8.0 | 0.00 | 0.00 | 0.00 | 31 | 1010.1 |
| 20260905204503 | 41 | 275 | 3.2 | 8.0 | 0.00 | 0.00 | 0.00 | 30 | 1010.5 |
| 20260905203102 | 41 | 135 | 3.2 | 9.7 | 0.00 | 0.00 | 0.00 | 32 | 1010.8 |
| 20260905201602 | 40 | 104 | 1.6 | 9.7 | 0.00 | 0.00 | 0.00 | 34 | 1011.0 |
| 20260905200127 | 38 | 354 | 1.6 | 9.7 | 0.00 | 0.00 | 0.00 | 36 | 1011.1 |
| 20260905194508 | 39 | 147 | 3.2 | 11.3 | 0.00 | 0.00 | 0.00 | 35 | 1011.3 |
| 20260905193015 | 39 | 235 | 3.2 | 11.3 | 0.00 | 0.00 | 0.00 | 34 | 1011.6 |
| 20260905191505 | 38 | 129 | 3.2 | 9.7 | 0.00 | 0.00 | 0.00 | 36 | 1011.8 |
| 20260905190006 | 39 | 100 | 1.6 | 8.0 | 0.00 | 0.00 | 0.00 | 36 | 1012.0 |